Location: Napa Junction
(38.1874°N, 122.2508°W)
Time: 13:01:03
(UTC+00:00)

Cosmos 540 Rocket - Pass Details

Date: 08 September 2024
Orbit: 737 x 749 km, 74.1° (Epoch: 11 October)

Event Time Altitude Azimuth Distance (km) Brightness Sun altitude
Rises 12:13:22 0° 347° (NNW) 3,181 6.8 -18.2°
Reaches altitude 10° 12:15:48 10° 353° (N) 2,256 6.1 -17.8°
Maximum altitude 12:20:45 49° 68° (ENE) 957 4.4 -16.9°
Drops below altitude 10° 12:25:41 10° 143° (SE) 2,250 6.1 -16.0°
Sets 12:28:06 0° 149° (SSE) 3,172 6.8 -15.5°
